MIDAS 4 DEB, 45467

Orbit data source: Space-Track

MIDAS 4 DEB, 45467 is space debris in LEO originally from a launch on Sat, 21 Oct 1961 UTC launched from the Air Force Western Test Range (AFWTR). Debris objects in space refer to the collection of defunct objects orbiting the Earth. Examples of debris include non-operational satellites, rocket bodies, and fragments generated from explosions, collisions, or faulty payload assembly.

Loading next visibility...
Identifier
45467, 1961-028M
Orbit
LEO
Country
Flag of USUS
Related business
Manufacturer
Unknown
Mission
Spacecraft
Bus & Motor
Unknown
Mass
Unknown
Launch date (UTC)
1961-10-21 (65 years ago)
Launch vehicle
Unknown
Launch site
Air Force Western Test Range (AFWTR)
Object type
Payload
Rocket body
Debris
Shape & HBR
Unknown shape, 1.1 m
Radar Cross Section
Medium (>0.1 m² and <1 m²)

Expand to show TLE details & history
Last TLE update: 1 year ago

TLE from 1 year ago
0 MIDAS 4 DEB
1 45467U 61028M   25109.63283500 -.00000113  00000-0 -32453-1 0  9992
2 45467  95.8328 190.3350 0905562 151.7473 213.5700  8.70606683304323
Epoch: 2025-04-19T15:11Z
TLE epoch observation values (Epoch: 2025-04-19T15:11:16.943Z)
Latitude
-0.00006°
Longitude
114.54117°
Altitude
4,380.991 km
Speed
5.846 km/s
True Right ascension
12h 41m 20s
True Declination
0° 00' 00"
Sunlit
Object was in full shadow at epoch
Visualization orbit readout
Latitude
Unknown
Longitude
Unknown
Altitude
Unknown
Speed
Unknown
Apparent Right ascension
Unknown
Apparent Declination
Unknown
Sunlit
N/A
Visualization observer readout
Local Sidereal Time
08:11:20
Azimuth
Unknown
Elevation
Unknown
Doppler factor
Unknown
Orbital elements
Apogee altitude
4,504.68 km
Perigee altitude
2,697.333 km
Semi-major axis
9,979.144 km
Eccentricity
0.09056
Inclination
95.8328°
RAAN
190.335°
Arg. of periapsis
151.7473°
True anomaly
208.33521°
Mean anomaly
213.57°
Eccentric anomaly
210.9051°
Mean motion
2.17722 °/min
Orbital period
165.35 mins
BSTAR
-0.032453
Loading maneuver chart data...
Computing Atmospheric mass density...
Loading historical data...
Loading historical data...
Loading historical data...
Loading historical data...
Loading historical data...
Loading historical data...
Loading historical data...

Documentation

Showing up to 5 results
|